Meteo orario Abaeté

Oggi, 20 Giugno, Domenica

Tempo Temperatura Precipitazioni Vento Pressione Umidità
00:00 +16°C° 0 mm 2 m/s 710 mm Hg 71%
01:00 +16°C° 0 mm 2 m/s 709 mm Hg 74%
02:00 +15°C° 0 mm 1 m/s 709 mm Hg 77%
03:00 +15°C° 0 mm 1 m/s 709 mm Hg 79%
04:00 +15°C° 0 mm 1 m/s 709 mm Hg 80%
05:00 +15°C° 0 mm 1 m/s 709 mm Hg 81%
06:00 +14°C° 0 mm 1 m/s 709 mm Hg 82%
07:00 +17°C° 0 mm 2 m/s 709 mm Hg 73%
08:00 +19°C° 0 mm 3 m/s 710 mm Hg 64%
09:00 +21°C° 0 mm 4 m/s 710 mm Hg 55%
10:00 +25°C° 0 mm 4 m/s 710 mm Hg 48%
11:00 +27°C° 0 mm 4 m/s 710 mm Hg 42%
12:00 +29°C° 0 mm 4 m/s 710 mm Hg 36%
13:00 +30°C° 0 mm 4 m/s 709 mm Hg 34%
14:00 +30°C° 0 mm 3 m/s 708 mm Hg 31%
15:00 +31°C° 0 mm 3 m/s 707 mm Hg 29%
16:00 +30°C° 0 mm 3 m/s 707 mm Hg 32%
17:00 +28°C° 0 mm 2 m/s 707 mm Hg 35%
18:00 +26°C° 0 mm 2 m/s 707 mm Hg 38%
19:00 +25°C° 0 mm 2 m/s 708 mm Hg 41%
20:00 +24°C° 0 mm 1 m/s 708 mm Hg 44%
21:00 +23°C° 0 mm 1 m/s 708 mm Hg 47%
22:00 +22°C° 0 mm 1 m/s 708 mm Hg 49%
23:00 +21°C° 0 mm 1 m/s 708 mm Hg 52%

Domani, 21 Giugno, Lunedi

Tempo Temperatura Precipitazioni Vento Pressione Umidità
00:00 +20°C° 0 mm 1 m/s 709 mm Hg 55%
01:00 +20°C° 0 mm 1 m/s 708 mm Hg 57%
02:00 +19°C° 0 mm 1 m/s 708 mm Hg 60%
03:00 +18°C° 0 mm 1 m/s 708 mm Hg 63%
04:00 +18°C° 0 mm 1 m/s 708 mm Hg 65%
05:00 +18°C° 0 mm 1 m/s 708 mm Hg 67%
06:00 +16°C° 0 mm 1 m/s 708 mm Hg 69%
07:00 +20°C° 0 mm 1 m/s 709 mm Hg 63%
08:00 +22°C° 0 mm 1 m/s 710 mm Hg 56%
09:00 +24°C° 0 mm 1 m/s 711 mm Hg 49%
10:00 +26°C° 0 mm 1 m/s 710 mm Hg 44%
11:00 +28°C° 0 mm 1 m/s 710 mm Hg 39%
12:00 +30°C° 0 mm 1 m/s 710 mm Hg 34%
13:00 +30°C° 0 mm 1 m/s 710 mm Hg 33%
14:00 +31°C° 0 mm 1 m/s 709 mm Hg 31%
15:00 +31°C° 0 mm 1 m/s 708 mm Hg 30%
16:00 +29°C° 0 mm 2 m/s 708 mm Hg 35%
17:00 +27°C° 0 mm 2 m/s 708 mm Hg 40%
18:00 +25°C° 0 mm 2 m/s 708 mm Hg 45%
19:00 +24°C° 0 mm 1 m/s 708 mm Hg 48%
20:00 +23°C° 0 mm 1 m/s 709 mm Hg 50%
21:00 +22°C° 0 mm 1 m/s 709 mm Hg 53%
22:00 +22°C° 0 mm 1 m/s 709 mm Hg 55%
23:00 +19°C° 0 mm 0 m/s 709 mm Hg 57%

Dopodomani, 22 Giugno, Martedi

Tempo Temperatura Precipitazioni Vento Pressione Umidità
00:00 +19°C° 0 mm 0 m/s 709 mm Hg 60%
01:00 +18°C° 0 mm 0 m/s 709 mm Hg 61%
02:00 +18°C° 0 mm 0 m/s 708 mm Hg 62%
03:00 +18°C° 0 mm 0 m/s 708 mm Hg 63%
04:00 +17°C° 0 mm 0 m/s 708 mm Hg 65%
05:00 +17°C° 0 mm 0 m/s 708 mm Hg 66%
06:00 +17°C° 0 mm 0 m/s 708 mm Hg 68%
07:00 +19°C° 0 mm 0 m/s 709 mm Hg 60%
08:00 +23°C° 0 mm 1 m/s 710 mm Hg 53%
09:00 +25°C° 0 mm 1 m/s 711 mm Hg 46%
10:00 +27°C° 0 mm 1 m/s 710 mm Hg 41%
11:00 +30°C° 0 mm 1 m/s 710 mm Hg 35%
12:00 +32°C° 0 mm 2 m/s 710 mm Hg 29%
13:00 +32°C° 0 mm 1 m/s 709 mm Hg 28%
14:00 +33°C° 0 mm 1 m/s 708 mm Hg 27%
15:00 +33°C° 0 mm 1 m/s 708 mm Hg 26%
16:00 +31°C° 0 mm 1 m/s 708 mm Hg 29%
17:00 +29°C° 0 mm 1 m/s 708 mm Hg 33%
18:00 +27°C° 0 mm 1 m/s 708 mm Hg 36%
19:00 +27°C° 0 mm 1 m/s 708 mm Hg 39%
20:00 +26°C° 0 mm 1 m/s 708 mm Hg 41%
21:00 +25°C° 0 mm 1 m/s 709 mm Hg 44%
22:00 +24°C° 0 mm 2 m/s 709 mm Hg 47%
23:00 +23°C° 0 mm 2 m/s 709 mm Hg 51%

23 Giugno, Mercoledi

Tempo Temperatura Precipitazioni Vento Pressione Umidità
00:00 +23°C° 0 mm 2 m/s 709 mm Hg 54%
01:00 +21°C° 0 mm 2 m/s 709 mm Hg 59%
02:00 +20°C° 0 mm 2 m/s 709 mm Hg 65%
03:00 +19°C° 0 mm 2 m/s 708 mm Hg 70%
04:00 +18°C° 0 mm 2 m/s 709 mm Hg 72%
05:00 +18°C° 0 mm 2 m/s 709 mm Hg 74%
06:00 +18°C° 0 mm 2 m/s 709 mm Hg 76%
07:00 +20°C° 0 mm 2 m/s 710 mm Hg 71%
08:00 +21°C° 0 mm 3 m/s 710 mm Hg 66%
09:00 +24°C° 0 mm 3 m/s 711 mm Hg 62%
10:00 +26°C° 0 mm 3 m/s 711 mm Hg 55%
11:00 +28°C° 0 mm 3 m/s 711 mm Hg 49%
12:00 +29°C° 0 mm 3 m/s 710 mm Hg 43%
13:00 +30°C° 0 mm 2 m/s 710 mm Hg 41%
14:00 +31°C° 0 mm 2 m/s 709 mm Hg 38%
15:00 +31°C° 0 mm 1 m/s 708 mm Hg 36%
16:00 +30°C° 0 mm 1 m/s 708 mm Hg 39%
17:00 +28°C° 0 mm 2 m/s 708 mm Hg 42%
18:00 +27°C° 0 mm 2 m/s 708 mm Hg 45%
19:00 +26°C° 0 mm 2 m/s 709 mm Hg 51%
20:00 +24°C° 0 mm 2 m/s 709 mm Hg 56%
21:00 +22°C° 0 mm 3 m/s 709 mm Hg 62%
22:00 +21°C° 0 mm 2 m/s 709 mm Hg 67%
23:00 +20°C° 0 mm 2 m/s 709 mm Hg 72%

24 Giugno, Giovedi

Tempo Temperatura Precipitazioni Vento Pressione Umidità
00:00 +20°C° 0 mm 1 m/s 709 mm Hg 77%
01:00 +19°C° 0 mm 1 m/s 709 mm Hg 80%
02:00 +18°C° 0 mm 1 m/s 709 mm Hg 83%
03:00 +18°C° 0 mm 1 m/s 709 mm Hg 87%
04:00 +16°C° 0 mm 1 m/s 709 mm Hg 89%
05:00 +16°C° 0 mm 1 m/s 709 mm Hg 91%
06:00 +15°C° 0 mm 0 m/s 709 mm Hg 94%
07:00 +18°C° 0 mm 1 m/s 709 mm Hg 85%
08:00 +19°C° 0 mm 2 m/s 710 mm Hg 77%
09:00 +21°C° 0 mm 2 m/s 710 mm Hg 68%
10:00 +24°C° 0 mm 2 m/s 710 mm Hg 60%
11:00 +26°C° 0 mm 2 m/s 710 mm Hg 51%
12:00 +28°C° 0 mm 2 m/s 710 mm Hg 43%
13:00 +29°C° 0 mm 2 m/s 709 mm Hg 40%
14:00 +30°C° 0 mm 1 m/s 708 mm Hg 38%
15:00 +31°C° 0 mm 1 m/s 708 mm Hg 35%
16:00 +29°C° 0 mm 1 m/s 708 mm Hg 40%
17:00 +27°C° 0 mm 1 m/s 708 mm Hg 46%
18:00 +25°C° 0 mm 1 m/s 707 mm Hg 51%
19:00 +24°C° 0 mm 1 m/s 708 mm Hg 53%
20:00 +23°C° 0 mm 1 m/s 708 mm Hg 56%
21:00 +22°C° 0 mm 1 m/s 708 mm Hg 59%
22:00 +21°C° 0 mm 1 m/s 708 mm Hg 61%
23:00 +21°C° 0 mm 1 m/s 708 mm Hg 63%

25 Giugno, Venerdi

Tempo Temperatura Precipitazioni Vento Pressione Umidità
00:00 +20°C° 0 mm 1 m/s 708 mm Hg 65%
01:00 +19°C° 0 mm 1 m/s 708 mm Hg 67%
02:00 +19°C° 0 mm 1 m/s 708 mm Hg 69%
03:00 +18°C° 0 mm 1 m/s 707 mm Hg 72%
04:00 +18°C° 0 mm 1 m/s 708 mm Hg 73%
05:00 +16°C° 0 mm 1 m/s 708 mm Hg 75%
06:00 +15°C° 0 mm 0 m/s 708 mm Hg 77%
07:00 +19°C° 0 mm 1 m/s 709 mm Hg 68%
08:00 +22°C° 0 mm 1 m/s 709 mm Hg 60%
09:00 +24°C° 0 mm 1 m/s 710 mm Hg 51%
10:00 +26°C° 0 mm 1 m/s 710 mm Hg 45%
11:00 +29°C° 0 mm 1 m/s 710 mm Hg 39%
12:00 +31°C° 0 mm 1 m/s 709 mm Hg 33%
13:00 +31°C° 0 mm 2 m/s 709 mm Hg 31%
14:00 +32°C° 0 mm 2 m/s 708 mm Hg 29%
15:00 +34°C° 0 mm 2 m/s 707 mm Hg 27%
16:00 +30°C° 0 mm 2 m/s 707 mm Hg 32%
17:00 +28°C° 0 mm 1 m/s 707 mm Hg 37%
18:00 +26°C° 0 mm 1 m/s 707 mm Hg 42%
19:00 +25°C° 0 mm 1 m/s 707 mm Hg 44%
20:00 +24°C° 0 mm 1 m/s 708 mm Hg 46%
21:00 +23°C° 0 mm 1 m/s 708 mm Hg 48%
22:00 +22°C° 0 mm 1 m/s 708 mm Hg 51%
23:00 +21°C° 0 mm 1 m/s 708 mm Hg 54%
Mostrare altro

Abbiamo bisogno del tuo consenso

Meteoprog e i nostri fornitori di servizi possono memorizzare e accedere a dati personali come cookie, identificatori di dispositivi o altre tecnologie simili sul tuo dispositivo e possono elaborare tali dati per personalizzare i contenuti e gli annunci, nonché fornire funzionalità dei social media e analizzarne il traffico.

  • Archiviare e/o accedere alle informazioni sul tuo dispositivo

    Cookie, identificatori di dispositivi o altre informazioni possono essere memorizzati o resi accessibili sul tuo dispositivo per le finalità sopra indicate.

  • Annunci e contenuti personalizzati, misurazione di annunci e contenuti, approfondimenti sul pubblico e sviluppo di prodotti

    Gli annunci e i contenuti possono essere personalizzati in base a un profilo. È possibile aggiungere più dati per personalizzare meglio annunci e contenuti. È possibile misurare il rendimento degli annunci e dei contenuti. È possibile ricavare informazioni sul pubblico che ha visto gli annunci e i contenuti. Tali dati possono essere utilizzati per sviluppare o migliorare l'esperienza, i sistemi e il software dell'utente.

Cliccando su “Accetto”, acconsenti all'uso di cookie, identificatori di dispositivo, web beacon o altre tecnologie simili. Puoi modificare le impostazioni nel browser del tuo dispositivo.

Per determinati scopi, è possibile fare affidamento su interessi legali, piuttosto che sul consenso. Puoi approfondire questo argomento consultando la nostra Informativa sulla privacy e sui cookie.